�������l�o���
Date,Time,MP-1(��Sv/h),MP-2(��Sv/h),MP-3(��Sv/h),MP-4(��Sv/h),MP-5(��Sv/h),MP-6(��Sv/h),MP-7(��Sv/h),����,����(m/s),���J
2023/08/27,00:00,0.152,0.138,0.226,0.214,0.215,0.123,0.078,�쐼,1.4,��
2023/08/27,00:10,0.152,0.138,0.229,0.216,0.212,0.123,0.077,-,CALM,��
2023/08/27,00:20,0.152,0.139,0.226,0.215,0.212,0.123,0.078,-,CALM,��
2023/08/27,00:30,0.150,0.138,0.226,0.214,0.215,0.124,0.079,-,CALM,��
2023/08/27,00:40,0.152,0.138,0.227,0.215,0.217,0.124,0.078,���k��,0.8,��
2023/08/27,00:50,0.153,0.138,0.228,0.217,0.214,0.125,0.077,�k��,0.7,��
2023/08/27,01:00,0.152,0.140,0.227,0.215,0.213,0.124,0.078,�k��,1.3,��
2023/08/27,01:10,0.151,0.139,0.225,0.213,0.215,0.123,0.078,�k�k��,1.6,��
2023/08/27,01:20,0.154,0.139,0.230,0.215,0.215,0.124,0.078,�k�k��,0.7,��
2023/08/27,01:30,0.154,0.141,0.227,0.216,0.213,0.124,0.078,�k�k��,0.7,��
2023/08/27,01:40,0.153,0.140,0.226,0.215,0.212,0.123,0.078,�k,0.7,��
2023/08/27,01:50,0.152,0.139,0.227,0.214,0.216,0.124,0.079,�k�k��,0.9,��
2023/08/27,02:00,0.153,0.138,0.227,0.217,0.215,0.124,0.077,�k��,0.7,��
2023/08/27,02:10,0.153,0.140,0.227,0.215,0.213,0.125,0.077,�k�k��,0.6,��
2023/08/27,02:20,0.152,0.140,0.225,0.212,0.213,0.124,0.079,�k,1.6,��
2023/08/27,02:30,0.152,0.139,0.229,0.214,0.216,0.124,0.079,�k�k��,1.0,�L
2023/08/27,02:40,0.154,0.140,0.229,0.216,0.215,0.125,0.078,�k�k��,0.8,��
2023/08/27,02:50,0.153,0.140,0.226,0.214,0.213,0.125,0.079,�k,0.9,��
2023/08/27,03:00,0.150,0.138,0.225,0.213,0.214,0.124,0.079,-,CALM,��
2023/08/27,03:10,0.152,0.138,0.229,0.215,0.216,0.124,0.078,-,CALM,�L
2023/08/27,03:20,0.155,0.140,0.227,0.217,0.216,0.124,0.078,�k�k��,0.7,��
2023/08/27,03:30,0.152,0.139,0.226,0.214,0.213,0.125,0.079,�k,1.1,��
2023/08/27,03:40,0.151,0.139,0.228,0.213,0.213,0.124,0.079,�k,1.8,�L
2023/08/27,03:50,0.152,0.139,0.229,0.216,0.216,0.123,0.078,�k,1.3,��
2023/08/27,04:00,0.154,0.140,0.226,0.216,0.217,0.125,0.078,�k,1.0,�L
2023/08/27,04:10,0.153,0.139,0.226,0.215,0.214,0.125,0.079,�k�k��,0.6,��
2023/08/27,04:20,0.151,0.139,0.227,0.215,0.214,0.124,0.079,-,CALM,��
2023/08/27,04:30,0.152,0.140,0.228,0.216,0.216,0.124,0.078,�k�k��,0.9,��
2023/08/27,04:40,0.154,0.140,0.228,0.216,0.216,0.124,0.079,�k�k��,1.0,��
2023/08/27,04:50,0.152,0.139,0.227,0.214,0.214,0.124,0.079,-,CALM,��
2023/08/27,05:00,0.152,0.139,0.229,0.215,0.212,0.124,0.078,-,CALM,�L
2023/08/27,05:10,0.154,0.140,0.228,0.217,0.217,0.125,0.079,�k�k��,0.8,�L
2023/08/27,05:20,0.153,0.140,0.226,0.215,0.216,0.126,0.079,��,0.6,�L
2023/08/27,05:30,0.152,0.139,0.229,0.214,0.213,0.124,0.079,-,CALM,�L
2023/08/27,05:40,0.152,0.140,0.228,0.217,0.214,0.125,0.079,�k,1.8,�L
2023/08/27,05:50,0.154,0.140,0.225,0.216,0.218,0.124,0.079,�k,2.5,��
2023/08/27,06:00,0.153,0.140,0.227,0.215,0.215,0.125,0.079,�k�k��,2.6,��
2023/08/27,06:10,0.151,0.139,0.229,0.214,0.213,0.125,0.079,�k��,0.9,��
2023/08/27,06:20,0.154,0.141,0.227,0.216,0.213,0.124,0.079,�k��,1.4,��
2023/08/27,06:30,0.154,0.140,0.225,0.215,0.215,0.125,0.079,�k,2.7,�L
2023/08/27,06:40,0.153,0.139,0.226,0.213,0.213,0.124,0.080,�k,2.3,�L
2023/08/27,06:50,0.152,0.140,0.229,0.213,0.213,0.125,0.079,�k��,0.6,��
2023/08/27,07:00,0.153,0.141,0.227,0.215,0.213,0.124,0.078,�k�k��,1.4,��
2023/08/27,07:10,0.155,0.140,0.225,0.216,0.216,0.124,0.079,�k�k��,1.7,��
2023/08/27,07:20,0.153,0.140,0.224,0.213,0.213,0.125,0.079,�k,2.7,��
2023/08/27,07:30,0.152,0.139,0.227,0.213,0.214,0.125,0.079,�k,1.5,�L
2023/08/27,07:40,0.152,0.139,0.227,0.214,0.213,0.125,0.079,�k�k��,2.7,�L
2023/08/27,07:50,0.154,0.141,0.227,0.216,0.211,0.124,0.079,�k�k��,2.6,��
2023/08/27,08:00,0.154,0.141,0.226,0.215,0.216,0.125,0.080,�k,2.5,��
2023/08/27,08:10,0.153,0.139,0.224,0.213,0.215,0.125,0.080,�k�k��,3.0,��
2023/08/27,08:20,0.152,0.139,0.224,0.213,0.214,0.125,0.079,�k�k��,3.4,��
2023/08/27,08:30,0.152,0.139,0.224,0.213,0.213,0.125,0.079,�k��,3.4,��
2023/08/27,08:40,0.151,0.140,0.224,0.213,0.213,0.124,0.080,�k�k��,3.5,��
2023/08/27,08:50,0.152,0.139,0.225,0.214,0.212,0.124,0.079,�k�k��,2.8,��
2023/08/27,09:00,0.153,0.139,0.226,0.214,0.213,0.125,0.079,�k��,2.0,��
2023/08/27,09:10,0.152,0.139,0.226,0.214,0.212,0.125,0.078,�k�k��,0.6,��
2023/08/27,09:20,0.152,0.140,0.227,0.214,0.213,0.125,0.079,�k,0.6,��
2023/08/27,09:30,0.153,0.139,0.227,0.215,0.213,0.125,0.078,-,CALM,��
2023/08/27,09:40,0.152,0.140,0.228,0.214,0.214,0.125,0.079,�k�k��,1.6,��
2023/08/27,09:50,0.152,0.139,0.226,0.213,0.213,0.125,0.079,�k�k��,1.7,��
2023/08/27,10:00,0.151,0.138,0.226,0.213,0.214,0.124,0.078,�k�k��,1.5,��
2023/08/27,10:10,0.152,0.138,0.226,0.213,0.214,0.124,0.078,���k��,0.7,��
2023/08/27,10:20,0.151,0.139,0.227,0.213,0.213,0.125,0.078,�k��,1.2,��
2023/08/27,10:30,0.152,0.138,0.226,0.215,0.214,0.124,0.078,���쓌,0.9,��
2023/08/27,10:40,0.153,0.140,0.227,0.215,0.214,0.124,0.078,�k��,1.2,��
2023/08/27,10:50,0.152,0.140,0.226,0.215,0.213,0.124,0.078,���k��,1.5,��
2023/08/27,11:00,0.151,0.139,0.227,0.215,0.215,0.125,0.078,�k��,1.8,��
2023/08/27,11:10,0.153,0.140,0.226,0.216,0.215,0.124,0.078,�k��,1.9,��
2023/08/27,11:20,0.152,0.139,0.227,0.216,0.215,0.123,0.078,���k��,2.4,��
2023/08/27,11:30,0.153,0.138,0.226,0.216,0.214,0.125,0.078,�k��,2.3,��
2023/08/27,11:40,0.153,0.139,0.227,0.216,0.214,0.125,0.078,�k��,2.3,��
2023/08/27,11:50,0.152,0.138,0.227,0.215,0.214,0.124,0.078,�k��,2.0,��
2023/08/27,12:00,0.152,0.140,0.227,0.215,0.215,0.124,0.078,�k��,1.6,��
2023/08/27,12:10,0.152,0.140,0.227,0.214,0.213,0.124,0.078,���k��,1.0,��
2023/08/27,12:20,0.152,0.139,0.226,0.215,0.213,0.123,0.078,���k��,2.0,��
2023/08/27,12:30,0.152,0.139,0.227,0.215,0.214,0.124,0.078,���k��,1.2,��
2023/08/27,12:40,0.153,0.139,0.226,0.215,0.214,0.124,0.078,�k��,1.7,��
2023/08/27,12:50,0.153,0.139,0.227,0.214,0.214,0.124,0.077,�k��,1.2,��
2023/08/27,13:00,0.151,0.138,0.226,0.214,0.213,0.124,0.078,�k��,1.8,��
2023/08/27,13:10,0.152,0.138,0.225,0.213,0.214,0.124,0.077,�k��,1.7,��
2023/08/27,13:20,0.152,0.138,0.225,0.214,0.213,0.123,0.078,���k��,5.4,�L
2023/08/27,13:30,0.151,0.138,0.225,0.213,0.212,0.123,0.077,��,4.8,�L
2023/08/27,13:40,0.151,0.139,0.226,0.214,0.212,0.123,0.078,���k��,4.2,��
2023/08/27,13:50,0.151,0.138,0.225,0.212,0.213,0.123,0.077,���k��,4.4,��
2023/08/27,14:00,0.151,0.139,0.223,0.214,0.212,0.124,0.077,�k��,3.7,��
2023/08/27,14:10,0.151,0.138,0.226,0.214,0.214,0.124,0.078,���k��,2.3,��
2023/08/27,14:20,0.152,0.139,0.225,0.213,0.212,0.124,0.077,��,1.8,��
2023/08/27,14:30,0.152,0.139,0.227,0.215,0.213,0.124,0.077,���k��,1.3,��
2023/08/27,14:40,0.152,0.139,0.227,0.214,0.213,0.124,0.077,-,CALM,��
2023/08/27,14:50,0.152,0.140,0.226,0.215,0.211,0.124,0.077,�k��,1.4,��
2023/08/27,15:00,0.152,0.138,0.224,0.213,0.213,0.124,0.078,�k�k��,0.6,��
2023/08/27,15:10,0.152,0.138,0.226,0.214,0.214,0.124,0.077,�k��,1.3,��
2023/08/27,15:20,0.152,0.139,0.226,0.214,0.213,0.123,0.078,�k��,1.3,��
2023/08/27,15:30,0.152,0.138,0.226,0.215,0.213,0.123,0.077,���k��,1.7,��
2023/08/27,15:40,0.152,0.138,0.225,0.214,0.213,0.124,0.077,�k��,1.1,��
2023/08/27,15:50,0.152,0.138,0.225,0.214,0.214,0.123,0.077,���k��,0.9,��
2023/08/27,16:00,0.151,0.138,0.225,0.212,0.213,0.124,0.077,�k,0.8,��
2023/08/27,16:10,0.151,0.139,0.225,0.213,0.214,0.124,0.077,-,CALM,��
2023/08/27,16:20,0.151,0.138,0.225,0.213,0.213,0.124,0.077,�k��,0.8,��
2023/08/27,16:30,0.151,0.138,0.225,0.212,0.212,0.123,0.077,�k,1.0,��
2023/08/27,16:40,0.151,0.137,0.225,0.212,0.213,0.124,0.078,�k�k��,1.5,��
2023/08/27,16:50,0.150,0.138,0.225,0.212,0.212,0.125,0.078,�k,1.8,��
2023/08/27,17:00,0.150,0.139,0.226,0.214,0.212,0.124,0.078,�k,1.3,��
2023/08/27,17:10,0.153,0.140,0.229,0.217,0.212,0.124,0.078,�k,1.8,�L
2023/08/27,17:20,0.153,0.139,0.228,0.216,0.211,0.123,0.077,�k,1.4,��
2023/08/27,17:30,0.153,0.139,0.226,0.215,0.211,0.124,0.076,�k,1.1,��
2023/08/27,17:40,0.151,0.137,0.225,0.212,0.214,0.124,0.077,�k,1.5,��
2023/08/27,17:50,0.151,0.137,0.225,0.213,0.215,0.124,0.078,�k,2.0,��
2023/08/27,18:00,0.152,0.138,0.224,0.213,0.214,0.123,0.078,�k,2.1,��
2023/08/27,18:10,0.153,0.140,0.228,0.216,0.213,0.124,0.078,�k,2.1,��
2023/08/27,18:20,0.152,0.139,0.229,0.215,0.212,0.124,0.078,�k,2.8,�L
2023/08/27,18:30,0.151,0.138,0.226,0.214,0.212,0.125,0.077,�k�k��,3.6,��
2023/08/27,18:40,0.150,0.137,0.225,0.213,0.217,0.124,0.078,�k,3.5,��
2023/08/27,18:50,0.152,0.139,0.226,0.215,0.215,0.123,0.078,�k,3.9,��
2023/08/27,19:00,0.153,0.140,0.229,0.216,0.214,0.123,0.077,�k�k��,4.4,��
2023/08/27,19:10,0.152,0.138,0.228,0.214,0.213,0.123,0.077,�k�k��,3.6,��
2023/08/27,19:20,0.152,0.138,0.227,0.214,0.213,0.125,0.077,�k�k��,3.5,��
2023/08/27,19:30,0.151,0.139,0.225,0.214,0.215,0.125,0.078,�k�k��,3.8,��
2023/08/27,19:40,0.153,0.140,0.228,0.216,0.214,0.124,0.078,�k�k��,3.7,��
2023/08/27,19:50,0.152,0.139,0.228,0.216,0.211,0.123,0.078,�k�k��,3.9,��
2023/08/27,20:00,0.151,0.139,0.226,0.214,0.213,0.124,0.077,�k�k��,4.4,��
2023/08/27,20:10,0.151,0.139,0.225,0.213,0.216,0.124,0.078,�k�k��,4.6,��
2023/08/27,20:20,0.151,0.140,0.228,0.217,0.214,0.124,0.078,�k�k��,5.4,��
2023/08/27,20:30,0.154,0.140,0.229,0.216,0.213,0.123,0.078,�k�k��,5.0,��
2023/08/27,20:40,0.154,0.139,0.226,0.215,0.212,0.124,0.077,�k�k��,5.3,��
2023/08/27,20:50,0.152,0.139,0.226,0.213,0.216,0.125,0.078,�k�k��,5.4,��
2023/08/27,21:00,0.151,0.139,0.227,0.216,0.215,0.124,0.079,�k��,6.3,��
2023/08/27,21:10,0.153,0.139,0.228,0.217,0.214,0.124,0.078,�k��,6.8,��
2023/08/27,21:20,0.153,0.139,0.227,0.215,0.211,0.123,0.078,�k��,6.8,��
2023/08/27,21:30,0.153,0.138,0.225,0.213,0.216,0.124,0.078,�k��,7.3,��
2023/08/27,21:40,0.151,0.139,0.228,0.216,0.216,0.124,0.078,�k��,7.1,��
2023/08/27,21:50,0.152,0.140,0.228,0.216,0.212,0.124,0.078,�k��,6.6,��
2023/08/27,22:00,0.153,0.139,0.227,0.215,0.212,0.124,0.077,�k�k��,6.4,��
2023/08/27,22:10,0.153,0.138,0.225,0.214,0.215,0.124,0.078,�k�k��,6.1,��
2023/08/27,22:20,0.152,0.139,0.228,0.217,0.215,0.124,0.078,�k�k��,7.2,��
2023/08/27,22:30,0.151,0.139,0.228,0.216,0.214,0.125,0.078,�k�k��,7.5,��
2023/08/27,22:40,0.153,0.140,0.227,0.215,0.212,0.123,0.077,�k�k��,7.0,��
2023/08/27,22:50,0.153,0.139,0.226,0.214,0.216,0.123,0.077,�k�k��,7.1,��
2023/08/27,23:00,0.152,0.138,0.228,0.217,0.216,0.123,0.078,�k�k��,7.9,��
2023/08/27,23:10,0.152,0.140,0.229,0.215,0.213,0.125,0.078,�k��,7.8,��
2023/08/27,23:20,0.153,0.139,0.227,0.214,0.213,0.125,0.078,�k��,7.4,��
2023/08/27,23:30,0.153,0.139,0.225,0.216,0.216,0.124,0.078,�k�k��,7.7,��
2023/08/27,23:40,0.152,0.138,0.230,0.216,0.215,0.124,0.078,�k��,7.9,��
2023/08/27,23:50,0.152,0.141,0.227,0.214,0.215,0.125,0.078,�k��,9.2,��
